Miscellaneous Local Product
Issued by NWS Hastings, NE

Home | Current Version | Previous Version | Graphics & Text | Print | Product List | Glossary On
Versions: 1 2 3 4 5 6 7 8 9 10 11 12 13 14 15 16 17 18 19 20 21 22 23 24 25 26 27 28 29 30 31 32 33 34 35 36 37 38 39 40 41 42 43 44 45 46 47 48 49 50
700
AXUS43 KGID 220402
MISGRI

GID CWA HOURLY WEATHER ROUNDUP
NATIONAL WEATHER SERVICE HASTINGS NE
1000 PM CST TUE FEB 21 2017

NOTE: "FAIR" INDICATES FEW OR NO CLOUDS BELOW 12,000 FEET WITH NO
SIGNIFICANT WEATHER AND/OR OBSTRUCTIONS TO VISIBILITY.

...SOUTH CENTRAL NEBRASKA...

CITY           SKY/WX    TMP DP  RH WIND       PRES   REMARKS
GRAND ISLAND   CLEAR     57  32  38 SW13      29.77F
HASTINGS       CLEAR     57  28  33 S9        29.80S
KEARNEY        CLEAR     57  27  30 SW10      29.80S
ORD            MOCLDY    55  31  39 VRB5      29.75S
YORK           CLEAR     50  32  50 S12       29.78S
AURORA         CLEAR     55  29  36 SW13      29.77F
LEXINGTON      CLEAR     50  29  45 S3        29.79F
HOLDREGE       CLEAR     55  25  31 SW7       29.81R
HEBRON         CLEAR     52  30  43 S9        29.81S

...NEBRASKA PANHANDLE...

CITY           SKY/WX    TMP DP  RH WIND       PRES   REMARKS
CHADRON        CLEAR     48  28  46 W7        29.75S
ALLIANCE       CLEAR     41  20  43 W10       29.78S
SCOTTSBLUFF    CLEAR     55  20  25 W10       29.79F
SIDNEY         CLEAR     53  13  20 W20       29.83F

...WESTERN AND NORTH CENTRAL NEBRASKA...

CITY           SKY/WX    TMP DP  RH WIND       PRES   REMARKS
VALENTINE      CLEAR     47  29  49 SW7       29.73S
AINSWORTH      CLEAR     49  32  52 SW10      29.75S
ONEILL         CLEAR     53  34  47 SW8       29.73R
BROKEN BOW     PTCLDY    48  31  51 E5        29.78S
IMPERIAL       PTCLDY    50  22  33 SW8       29.83F
NORTH PLATTE   MOCLDY    42  28  57 CALM      29.79F
MCCOOK         PTCLDY    54  25  32 W7        29.81F

...EASTERN NEBRASKA...

CITY           SKY/WX    TMP DP  RH WIND       PRES   REMARKS
NORFOLK        CLOUDY    54  34  46 S16       29.70F
SO SIOUX CITY  CLEAR     47  38  71 E8        29.71F
TEKAMAH        CLEAR     49  38  65 S13       29.74F
COLUMBUS       CLEAR     57  30  35 S10       29.76S
ALBION         MOCLDY    53  33  46 CALM      29.74S
OMAHA EPPLEY   CLEAR     51  37  58 S12       29.78S
OFFUTT AFB     CLEAR     44  38  78 SE7       29.79S
MILLARD        CLEAR     56  39  51 SE6       29.78F
LINCOLN        CLEAR     56  33  42 S13       29.80S
NEBRASKA CITY  CLEAR     53  31  42 S14       29.81F
BEATRICE       CLEAR     56  35  43 S10G16    29.82S
FALLS CITY     CLEAR     55  34  45 S9        29.84F

...NORTHERN KANSAS...

CITY           SKY/WX    TMP DP  RH WIND       PRES   REMARKS
GOODLAND       CLOUDY    60  18  19 SW18      29.88F
HILL CITY      CLEAR     58  26  29 SW9       29.85S
NORTON         CLEAR     54  21  28 S8        29.82
PHILLIPSBURG   CLEAR     54  27  35 SW6       29.82F
SMITH CENTER   CLEAR     48  27  43 S9        29.82F
HAYS             N/A     50  26  39 SW6       29.87F
RUSSELL        CLEAR     51  26  37 S13       29.85F
CONCORDIA      CLEAR     56  34  43 S22G29    29.83F
SALINA         CLEAR     53  37  54 S10       29.87S
TOPEKA         CLEAR     50  36  58 S3        29.88F



USA.gov is the U.S. government's official web portal to all federal, state and local government web resources and services.